Regional Weather Roundup
Issued by NWS Newport/Morehead, NC

Current Version | Previous Version | Graphics & Text | Print | Product List | Glossary Off
Versions: 1 2 3 4 5 6 7 8 9 10 11 12 13 14 15 16 17 18 19 20 21 22 23 24 25 26 27 28 29 30 31 32 33 34 35 36 37 38 39 40 41 42 43 44 45 46 47 48 49 50

000
ASUS42 KMHX 222013
RWRMHX
WEATHER ROUNDUP FOR EASTERN NORTH CAROLINA
NATIONAL WEATHER SERVICE NEWPORT/MOREHEAD CITY NC
300 PM EST SUN JAN 22 2017

NOTE: "FAIR" INDICATES FEW OR NO CLOUDS BELOW 12,000 FEET
WITH NO SIGNIFICANT WEATHER AND/OR OBSTRUCTIONS TO VISIBILITY

NCZ015>017-031-032-045>047-102-103-222100-
NORTH COAST

CITY           SKY/WX    TMP DP  RH WIND       PRES   REMARKS
EDENTON        CLOUDY    57  55  95 CALM      29.56F FOG
ELIZABETH CITY CLOUDY    55  54  96 W3        29.57R
KITTY HAWK     NOT AVBL
MANTEO         FOG       54  54 100 N3        29.55F VSB 1/4

$$

NCZ045>047-081-094-103-104-222100-
CENTRAL COAST

CITY           SKY/WX    TMP DP  RH WIND       PRES   REMARKS
FRISCO         FOG       63  60  90 CALM      29.54F VSB 1/4

$$

NCZ095-097-098-100-101-222100-
SOUTHERN COAST

CITY           SKY/WX    TMP DP  RH WIND       PRES   REMARKS
BEAUFORT       CLOUDY    62  59  90 S6        29.54F
CEDAR ISLAND   NOT AVBL
JACKSONVILLE   CLOUDY    60  60 100 SE9       29.53R
PINEY ISLAND   CLOUDY   N/A N/A N/A CALM      29.53F
WILMINGTON     CLOUDY    62  60  93 SE6       29.54R


$$

NCZ011>013-027>030-043-044-078>080-089-090>093-098-222100-
COASTAL PLAIN

CITY           SKY/WX    TMP DP  RH WIND       PRES   REMARKS
AHOSKIE        DRIZZLE   53  52  98 CALM      29.57F
CLINTON        CLOUDY    65  59  80 CALM      29.51F
ELIZABETHTOWN  CLOUDY    64  59  85 SE6       29.54R
GOLDSBORO      CLOUDY    60  60 100 NE5       29.50F
GREENVILLE     CLOUDY    57  57 100 N3        29.58F FOG
HAVELOCK       CLOUDY    62  58  86 CALM      29.56R
KENANSVILLE    PTSUNNY   64  57  77 CALM      29.52R
KINSTON        CLOUDY    61  57  88 N6        29.53F
NEW BERN       MOSUNNY   63  59  87 NE5       29.54F
RICHLANDS      CLOUDY    63  60  90 E3        29.53S
ROCKY MOUNT    CLOUDY    55  55 100 NE6       29.53F
WASHINGTON     CLOUDY    64  58  81 CALM        N/A
WHITEVILLE     CLOUDY    64  59  85 S10       29.53R

$$

AMZ130-135-150-152-154-156-158-170-250-252-270-ANZ085-086-088-633-658-670-222100-
MARINE OBSERVATIONS

STATION/POSITION TIME  TEMP    WIND        PRES    WAVE   SWELL
                       AIR SEA DIR/SP/G            HT/PER HT/PER
                 (UTC) (F)     (DEG/KT/KT) (MB)    (FT/S) (FT/S)
CHESAPEAKE LIGHT NOT AVBL
64 E VA BEACH    1950   51 56  280/  8/ 10  999.2    5/12   5/12
DUCK             1948   49 46  350/  4/  4 1000.7
2 E DUCK         1930      47                N/A     3/13   2/13
OREGON INLET     1942   53 50  200/ 11/ 13 1000.6
13E OREGON INLT  NOT AVBL
HATTERAS CG      1948   60 54     CALM      999.2
DIAMOND BUOY     1950   65 72  260/  8/ 10  999.9    4/11   3/11
CAPE LOOKOUT     1900   61     140/  7/  8  999.1
BEAUFORT LAB     1948   60 52  160/  4/  6  998.8
30 SE NEW RVR IN 1908   63 64  230/ 14/ 17 1000.0
30 SE NEW RVR IN 1943      64                N/A     3/13   2/13
27 SE WRIGHTSVLE 1908   65 67  190/ 12/ 16  999.8
5 SE WRIGHTSVLE  1908   55     280/  4/  8  999.5
225 S CAPE HAT   1950   73 71  200/ 19/ 25 1003.5    8/ 8   3/13
41 SE CHARLESTON 1850   66 68  180/ 10/ 14 1000.6    6/ 7   5/ 7

$$



USA.gov is the U.S. government's official web portal to all federal, state and local government web resources and services.